• MPC Preparation (Info)

  • MPEC 2022-R19 : 2022 QX33

    The following Minor Planet Electronic Circular may be linked-to from your own Web pages, but must not otherwise be redistributed electronically.

    A form allowing access to any MPEC is at the bottom of this page.


    Read MPEC 2022-R18 Read MPEC 2022-R20


    M.P.E.C. 2022-R19                             Issued 2022 September 2, 11:55 UT
    
         The Minor Planet Electronic Circulars contain information on unusual
             minor planets and routine data on comets.  They are published
        on behalf of Division F of the International Astronomical Union by the
              Minor Planet Center, Smithsonian Astrophysical Observatory,
                              Cambridge, MA 02138, U.S.A.
    
                 Prepared using the Tamkin Foundation Computer Network
    
                                  MPC@CFA.HARVARD.EDU
                URL https://www.minorplanetcenter.net/    ISSN 1523-6714
    
                                    2022 QX33                                
    
    
    Observations:
         K22Q33X* C2022 08 31.34510222 39 56.584+17 16 45.81         21.22wUER019F51
         K22Q33X  C2022 08 31.35918422 39 54.673+17 15 49.12         21.05wUER019F51
         K22Q33X  C2022 08 31.37313022 39 52.775+17 14 52.62         21.33wUER019F51
         K22Q33X  C2022 08 31.39021222 39 50.452+17 13 43.63         21.17wUER019F51
         K22Q33X  C2022 08 31.51158522 39 33.913+17 05 30.06         21.38GVER019F51
         K22Q33X  C2022 08 31.51227922 39 33.819+17 05 27.46         21.29GVER019F51
         K22Q33X 1C2022 09 01.08411 22 38 20.04 +16 26 16.3          20.9 VXER019033
         K22Q33X 1C2022 09 01.08659 22 38 19.72 +16 26 06.1          20.4 VXER019033
         K22Q33X 1C2022 09 01.08908 22 38 19.41 +16 25 55.9          20.4 VXER019033
         K22Q33X KC2022 09 01.12837722 38 15.54 +16 23 16.5          21.2 VuER019H21
         K22Q33X KC2022 09 01.13396922 38 14.79 +16 22 53.5          20.8 VuER019H21
         K22Q33X KC2022 09 01.13956122 38 14.00 +16 22 30.6          20.8 VuER019H21
         K22Q33X KC2022 09 02.21556022 35 54.69 +15 07 37.6          20.9 VuER019H21
         K22Q33X KC2022 09 02.22115222 35 53.93 +15 07 14.2          21.1 VuER019H21
         K22Q33X KC2022 09 02.22394822 35 53.56 +15 07 02.5          21.0 VuER019H21
         K22Q33X  C2022 09 02.31805822 35 42.118+15 00 29.23         21.34wUER019F51
         K22Q33X  C2022 09 02.33148722 35 40.308+14 59 32.63         21.40wUER019F51
         K22Q33X  C2022 09 02.35823622 35 36.675+14 57 39.63         21.59wUER019F51
    
    Observer details:
    033 Karl Schwarzschild Observatory, Tautenburg.  Observers S. Melnikov, C.
        Hoegner, F. Ludwig, B. Stecklum.  Measurer B. Stecklum.  1.34-m f/3
        Schmidt + CCD.
    F51 Pan-STARRS 1, Haleakala.  Observers J. Bulger, T. Lowe, A. Schultz, I.
        Smith, K. Chambers.  Measurers K. Chambers, S. Chastel, T. de Boer, J.
        Fairlamb, H. Gao, M. Huber, C.-C. Lin, E. Magnier, Y. Ramanjooloo, R.
        Wainscoat, R. Weryk.  1.8-m Ritchey-Chretien + CCD.
    H21 Astronomical Research Observatory, Westfield.  Observer R. Holmes.
        Measurers T. Linder, R. Holmes, L. Horn.  0.76-m f/3.0 astrograph + CCD,
        1.3-m f/4.0 astrograph + CCD.
    
    Orbital elements:
    2022 QX33                                                Earth MOID = 0.1762 AU
    Epoch 2022 Aug. 9.0 TT = JDT 2459800.5                  Veres                   
    M 152.15890              (2000.0)            P               Q                  
    n   0.81432475     Peri.  353.80298     -0.96476730     -0.23811199             
    a   1.1357192      Node   170.00846     +0.26048485     -0.92431016             
    e   0.2826128      Incl.   40.17156     +0.03703642     +0.29825059             
    P   1.21           H   21.05          G   0.15           U   9                  
    Residuals in seconds of arc
    220831 F51  0.0   0.0     220901 033  0.1+  0.3+    220902 H21  0.2-  0.2-
    220831 F51  0.1-  0.1+    220901 033  0.2+  0.4+    220902 H21  0.2-  0.0
    220831 F51  0.1-  0.0     220901 033  0.5+  0.4+    220902 H21  0.1-  0.1+
    220831 F51  0.1-  0.1+    220901 H21  0.5+  0.2-    220902 F51  0.0   0.0
    220831 F51  0.1+  0.1-    220901 H21  0.4+  0.3-    220902 F51  0.1+  0.0
    220831 F51  0.1+  0.1+    220901 H21  0.2-  0.1-    220902 F51  0.1-  0.1-
    
    Ephemeris:
    2022 QX33                a,e,i = 1.14, 0.28, 40                  q = 0.8148
    Date    TT    R. A. (2000) Decl.     Delta      r    Elong.  Phase     V
    2022 08 03    23 26 32.5 +36 48 18   0.6655  1.4249   114.4    40.4    22.5
    ...
    2022 08 18    23 06 39.5 +29 29 22   0.5482  1.4442   133.2    30.7    21.9
    ...
    2022 08 26    22 51 15.3 +22 52 17   0.5000  1.4509   145.5    23.2    21.5
    ...
    2022 09 01    22 38 31.5 +16 32 17   0.4755  1.4542   155.0    17.1    21.2
    2022 09 02    22 36 22.5 +15 22 57   0.4726  1.4546   156.4    16.1    21.1
    2022 09 03    22 34 13.6 +14 12 11   0.4700  1.4550   157.8    15.2    21.1
    ...
    2022 09 09    22 21 38.0 +06 45 24   0.4630  1.4565   163.0    11.6    20.9
    ...
    2022 09 17    22 06 39.1 -03 21 42   0.4760  1.4562   157.4    15.4    21.1
    ...
    2022 10 02    21 48 25.3 -18 59 06   0.5610  1.4490   134.2    29.7    21.9
    
    M. P. C. Staff               (C) Copyright 2022 MPC           M.P.E.C. 2022-R19
    


    Read MPEC 2022-R18 Read MPEC 2022-R20


    MPEC number:

    Enter an MPEC number in one of the following forms:

    • 1997-B01 (the full form)
    • J97B01 (the packed version of the full form)
    • B01 (the abbreviated form)